| time (UTC) | temp F | wind direction | speed knots | gust knots | rain 1hr in | rain 24hr in | rain mn in | humidity % | barometer mb |
| 20260502163618 | 77 | 210 | 7.8 | 8.7 | 0.00 | 0.00 | 0.00 | 32 | 1016.9 |
| 20260502162832 | 77 | 266 | 2.6 | 10.4 | 0.00 | 0.00 | 0.00 | 32 | 1017.0 |
| 20260502162332 | 77 | 218 | 5.2 | 10.4 | 0.00 | 0.00 | 0.00 | 32 | 1017.0 |
| 20260502161832 | 77 | 235 | 6.1 | 7.8 | 0.00 | 0.00 | 0.00 | 33 | 1017.0 |
| 20260502161331 | 77 | 204 | 4.3 | 7.8 | 0.00 | 0.00 | 0.00 | 33 | 1017.1 |
| 20260502160834 | 77 | 238 | 3.5 | 6.1 | 0.00 | 0.00 | 0.00 | 33 | 1017.1 |
| 20260502160333 | 77 | 213 | 1.7 | 4.3 | 0.00 | 0.00 | 0.00 | 32 | 1017.2 |
| 20260502152307 | 78 | 234 | 4.3 | 6.1 | 0.00 | 0.00 | 0.00 | 32 | 1017.8 |
| 20260502151809 | 78 | 294 | 3.5 | 6.1 | 0.00 | 0.00 | 0.00 | 31 | 1017.8 |
| 20260502151550 | 78 | 245 | 4.3 | 6.1 | 0.00 | 0.00 | 0.00 | 31 | 1017.9 |
| 20260502150807 | 78 | 191 | 2.6 | 6.1 | 0.00 | 0.00 | 0.00 | 30 | 1018.0 |
| 20260502150307 | 78 | 186 | 1.7 | 8.7 | 0.00 | 0.00 | 0.00 | 30 | 1018.1 |
| 20260502130545 | 79 | 204 | 2.6 | 7.8 | 0.00 | 0.00 | 0.00 | 30 | 1019.7 |
| 20260502123806 | 79 | 201 | 3.5 | 11.3 | 0.00 | 0.00 | 0.00 | 30 | 1020.1 |
| 20260502123305 | 78 | 221 | 4.3 | 10.4 | 0.00 | 0.00 | 0.00 | 31 | 1020.1 |
| 20260502122803 | 79 | 206 | 5.2 | 10.4 | 0.00 | 0.00 | 0.00 | 30 | 1020.2 |
| 20260502122306 | 79 | 182 | 4.3 | 6.1 | 0.00 | 0.00 | 0.00 | 31 | 1020.3 |
| 20260502121804 | 78 | 203 | 4.3 | 7.8 | 0.00 | 0.00 | 0.00 | 31 | 1020.3 |
| 20260502121556 | 78 | 135 | 4.3 | 10.4 | 0.00 | 0.00 | 0.00 | 30 | 1020.3 |
| 20260502120805 | 78 | 194 | 5.2 | 10.4 | 0.00 | 0.00 | 0.00 | 30 | 1020.4 |
| 20260502120549 | 78 | 160 | 2.6 | 7.8 | 0.00 | 0.00 | 0.00 | 30 | 1020.5 |
| 20260502115804 | 78 | 198 | 3.5 | 9.6 | 0.00 | 0.00 | 0.00 | 31 | 1020.6 |
| 20260502115306 | 78 | 193 | 7.0 | 9.6 | 0.00 | 0.00 | 0.00 | 30 | 1020.6 |
| 20260502114804 | 78 | 126 | 5.2 | 8.7 | 0.00 | 0.00 | 0.00 | 30 | 1020.7 |
| 20260502114305 | 79 | 208 | 4.3 | 10.4 | 0.00 | 0.00 | 0.00 | 30 | 1020.7 |
| 20260502113805 | 79 | 197 | 6.1 | 10.4 | 0.00 | 0.00 | 0.00 | 31 | 1020.8 |
| 20260502113305 | 78 | 237 | 1.7 | 4.3 | 0.00 | 0.00 | 0.00 | 31 | 1020.9 |
| 20260502112805 | 78 | 165 | 1.7 | 9.6 | 0.00 | 0.00 | 0.00 | 31 | 1021.0 |
| 20260502112305 | 78 | 146 | 4.3 | 9.6 | 0.00 | 0.00 | 0.00 | 31 | 1021.0 |
| 20260502112051 | 78 | 143 | 3.5 | 8.7 | 0.00 | 0.00 | 0.00 | 32 | 1021.1 |
| 20260502111303 | 78 | 225 | 2.6 | 11.3 | 0.00 | 0.00 | 0.00 | 31 | 1021.2 |
| 20260502110802 | 78 | 201 | 8.7 | 11.3 | 0.00 | 0.00 | 0.00 | 31 | 1021.3 |
| 20260502110303 | 78 | 213 | 4.3 | 9.6 | 0.00 | 0.00 | 0.00 | 31 | 1021.3 |
| 20260502105803 | 77 | 235 | 4.3 | 9.6 | 0.00 | 0.00 | 0.00 | 31 | 1021.4 |
| 20260502105305 | 78 | 224 | 3.5 | 7.8 | 0.00 | 0.00 | 0.00 | 32 | 1021.3 |
| 20260502104804 | 77 | 159 | 2.6 | 8.7 | 0.00 | 0.00 | 0.00 | 32 | 1021.5 |
| 20260502104303 | 77 | 148 | 4.3 | 11.3 | 0.00 | 0.00 | 0.00 | 32 | 1021.6 |
| 20260502103800 | 78 | 241 | 6.1 | 12.2 | 0.00 | 0.00 | 0.00 | 31 | 1021.6 |
| 20260502103302 | 78 | 201 | 7.0 | 12.2 | 0.00 | 0.00 | 0.00 | 33 | 1021.6 |
| 20260502102800 | 77 | 193 | 1.7 | 5.2 | 0.00 | 0.00 | 0.00 | 35 | 1021.7 |
| 20260502102301 | 77 | 191 | 4.3 | 7.8 | 0.00 | 0.00 | 0.00 | 34 | 1021.8 |
| 20260502101802 | 76 | 215 | 2.6 | 13.9 | 0.00 | 0.00 | 0.00 | 32 | 1021.8 |
| 20260502101301 | 77 | 167 | 8.7 | 13.9 | 0.00 | 0.00 | 0.00 | 32 | 1022.0 |
| 20260502100802 | 77 | 135 | 3.5 | 8.7 | 0.00 | 0.00 | 0.00 | 33 | 1022.0 |
| 20260502100302 | 77 | 320 | 2.6 | 5.2 | 0.00 | 0.00 | 0.00 | 33 | 1021.9 |
| 20260502091302 | 76 | 207 | 5.2 | 9.6 | 0.00 | 0.00 | 0.00 | 35 | 1022.7 |
| 20260502090800 | 75 | 163 | 1.7 | 7.8 | 0.00 | 0.00 | 0.00 | 35 | 1022.6 |
| 20260502090540 | 74 | 194 | 5.2 | 7.8 | 0.00 | 0.00 | 0.00 | 33 | 1022.7 |
| 20260502071234 | 69 | 151 | 1.7 | 4.3 | 0.00 | 0.00 | 0.00 | 49 | 1023.3 |
| 20260502070733 | 69 | 163 | 2.6 | 6.1 | 0.00 | 0.00 | 0.00 | 50 | 1023.4 |
| 20260502070234 | 68 | 166 | 4.3 | 6.1 | 0.00 | 0.00 | 0.00 | 52 | 1023.3 |
| 20260502065816 | 67 | 156 | 1.7 | 3.5 | 0.00 | 0.00 | 0.00 | 53 | 1023.4 |
| 20260502065800 | 68 | 156 | 0.9 | 3.5 | 0.00 | 0.00 | 0.00 | 51 | 1023.3 |
| 20260502064734 | 66 | 152 | 2.6 | 3.5 | 0.00 | 0.00 | 0.00 | 54 | 1023.3 |
| 20260502064234 | 65 | 155 | 1.7 | 4.3 | 0.00 | 0.00 | 0.00 | 53 | 1023.4 |
| 20260502063732 | 65 | 151 | 2.6 | 4.3 | 0.00 | 0.00 | 0.00 | 54 | 1023.5 |
| 20260502063232 | 64 | 159 | 2.6 | 4.3 | 0.00 | 0.00 | 0.00 | 56 | 1023.5 |
| 20260502062734 | 64 | 152 | 3.5 | 4.3 | 0.00 | 0.00 | 0.00 | 56 | 1023.4 |
| 20260502062234 | 63 | 155 | 2.6 | 3.5 | 0.00 | 0.00 | 0.00 | 57 | 1023.5 |
| 20260502061733 | 63 | 155 | 2.6 | 3.5 | 0.00 | 0.00 | 0.00 | 57 | 1023.6 |
| 20260502061232 | 62 | 30 | 2.6 | 2.6 | 0.00 | 0.00 | 0.00 | 63 | 1023.5 |
| 20260502060733 | 61 | 10 | 0.9 | 0.9 | 0.00 | 0.00 | 0.00 | 63 | 1023.4 |
| 20260502060232 | 59 | 12 | 0.0 | 0.0 | 0.00 | 0.00 | 0.00 | 65 | 1023.4 |
| 20260502055732 | 59 | 12 | 0.0 | 0.0 | 0.00 | 0.00 | 0.00 | 65 | 1023.5 |
| 20260502055232 | 58 | 12 | 0.0 | 0.0 | 0.00 | 0.00 | 0.00 | 68 | 1023.5 |
| 20260502054826 | 54 | 12 | 0.0 | 0.9 | 0.00 | 0.00 | 0.00 | 73 | 1023.4 |
| 20260502054804 | 56 | 12 | 0.0 | 0.0 | 0.00 | 0.00 | 0.00 | 69 | 1023.5 |
| 20260502053733 | 52 | 12 | 0.0 | 0.9 | 0.00 | 0.00 | 0.00 | 77 | 1023.5 |
| 20260502053232 | 50 | 12 | 0.0 | 0.0 | 0.00 | 0.00 | 0.00 | 78 | 1023.5 |
| 20260502052735 | 49 | 12 | 0.0 | 0.0 | 0.00 | 0.00 | 0.00 | 81 | 1023.5 |
| 20260502052232 | 47 | 12 | 0.0 | 0.9 | 0.00 | 0.00 | 0.00 | 81 | 1023.4 |
| 20260502051731 | 46 | 12 | 0.0 | 0.9 | 0.00 | 0.00 | 0.00 | 82 | 1023.4 |
| 20260502051232 | 45 | 10 | 0.0 | 0.0 | 0.00 | 0.00 | 0.00 | 82 | 1023.4 |
| 20260502050731 | 44 | 10 | 0.0 | 0.0 | 0.00 | 0.00 | 0.00 | 82 | 1023.4 |
| 20260502050233 | 44 | 10 | 0.0 | 0.0 | 0.00 | 0.00 | 0.00 | 82 | 1023.4 |
| 20260502050049 | 43 | 10 | 0.0 | 0.0 | 0.00 | 0.00 | 0.00 | 82 | 1023.5 |
| 20260502050045 | 43 | 10 | 0.0 | 0.0 | 0.00 | 0.00 | 0.00 | 82 | 1023.5 |
| 20260502045012 | 42 | 10 | 0.0 | 0.0 | 0.00 | 0.00 | 0.00 | 81 | 1023.4 |
| 20260502044232 | 42 | 10 | 0.0 | 0.0 | 0.00 | 0.00 | 0.00 | 81 | 1023.4 |
| 20260502043706 | 42 | 10 | 0.0 | 0.0 | 0.00 | 0.00 | 0.00 | 81 | 1023.5 |
| 20260502043205 | 42 | 10 | 0.0 | 0.0 | 0.00 | 0.00 | 0.00 | 81 | 1023.4 |
| 20260502042704 | 41 | 10 | 0.0 | 0.0 | 0.00 | 0.00 | 0.00 | 81 | 1023.4 |
| 20260502042204 | 41 | 10 | 0.0 | 0.0 | 0.00 | 0.00 | 0.00 | 80 | 1023.3 |
| 20260502041703 | 41 | 10 | 0.0 | 0.0 | 0.00 | 0.00 | 0.00 | 80 | 1023.3 |
| 20260502041203 | 41 | 10 | 0.0 | 0.0 | 0.00 | 0.00 | 0.00 | 80 | 1023.3 |
| 20260502040946 | 41 | 10 | 0.0 | 0.0 | 0.00 | 0.00 | 0.00 | 80 | 1023.3 |
| 20260502040209 | 41 | 10 | 0.0 | 0.0 | 0.00 | 0.00 | 0.00 | 80 | 1023.3 |
| 20260502035703 | 41 | 10 | 0.0 | 0.0 | 0.00 | 0.00 | 0.00 | 80 | 1023.3 |
| 20260502035204 | 41 | 10 | 0.0 | 0.0 | 0.00 | 0.00 | 0.00 | 80 | 1023.3 |
| 20260502034703 | 41 | 10 | 0.0 | 0.0 | 0.00 | 0.00 | 0.00 | 80 | 1023.3 |
| 20260502034204 | 41 | 10 | 0.0 | 0.0 | 0.00 | 0.00 | 0.00 | 79 | 1023.4 |
| 20260502033949 | 41 | 10 | 0.0 | 0.0 | 0.00 | 0.00 | 0.00 | 79 | 1023.3 |
| 20260502033203 | 41 | 10 | 0.0 | 0.0 | 0.00 | 0.00 | 0.00 | 80 | 1023.3 |
| 20260502032704 | 42 | 10 | 0.0 | 0.0 | 0.00 | 0.00 | 0.00 | 80 | 1023.4 |
| 20260502032204 | 42 | 10 | 0.0 | 0.0 | 0.00 | 0.00 | 0.00 | 79 | 1023.4 |
| 20260502031710 | 42 | 10 | 0.0 | 0.0 | 0.00 | 0.00 | 0.00 | 79 | 1023.5 |
| 20260502031203 | 42 | 10 | 0.0 | 0.0 | 0.00 | 0.00 | 0.00 | 79 | 1023.5 |
| 20260502030704 | 42 | 10 | 0.0 | 0.0 | 0.00 | 0.00 | 0.00 | 79 | 1023.5 |
| 20260502030204 | 42 | 10 | 0.0 | 0.0 | 0.00 | 0.00 | 0.00 | 79 | 1023.6 |
| 20260502025705 | 42 | 10 | 0.0 | 0.0 | 0.00 | 0.00 | 0.00 | 79 | 1023.5 |
| 20260502025205 | 42 | 10 | 0.0 | 0.0 | 0.00 | 0.00 | 0.00 | 78 | 1023.5 |
| 20260502024705 | 42 | 10 | 0.0 | 0.0 | 0.00 | 0.00 | 0.00 | 78 | 1023.6 |
| 20260502024205 | 42 | 10 | 0.0 | 0.0 | 0.00 | 0.00 | 0.00 | 78 | 1023.6 |
| 20260502023705 | 42 | 10 | 0.0 | 0.0 | 0.00 | 0.00 | 0.00 | 78 | 1023.6 |
| 20260502023449 | 42 | 10 | 0.0 | 0.0 | 0.00 | 0.00 | 0.00 | 78 | 1023.6 |
| 20260502022654 | 43 | 10 | 0.0 | 0.0 | 0.00 | 0.00 | 0.00 | 78 | 1023.7 |
| 20260502022430 | 43 | 10 | 0.0 | 0.0 | 0.00 | 0.00 | 0.00 | 78 | 1023.7 |
| 20260502021652 | 43 | 10 | 0.0 | 0.0 | 0.00 | 0.00 | 0.00 | 78 | 1023.7 |
| 20260502021152 | 43 | 10 | 0.0 | 0.0 | 0.00 | 0.00 | 0.00 | 78 | 1023.7 |
| 20260502020654 | 43 | 10 | 0.0 | 0.0 | 0.00 | 0.00 | 0.00 | 78 | 1023.7 |
| 20260502020152 | 43 | 10 | 0.0 | 0.0 | 0.00 | 0.00 | 0.00 | 78 | 1023.8 |
| 20260502015652 | 43 | 10 | 0.0 | 0.0 | 0.00 | 0.00 | 0.00 | 78 | 1023.8 |
| 20260502015152 | 43 | 10 | 0.0 | 0.0 | 0.00 | 0.00 | 0.00 | 78 | 1023.7 |
| 20260502014651 | 44 | 10 | 0.0 | 0.9 | 0.00 | 0.00 | 0.00 | 77 | 1023.8 |
| 20260502014150 | 44 | 10 | 0.0 | 0.9 | 0.00 | 0.00 | 0.00 | 77 | 1023.8 |
| 20260502013652 | 44 | 10 | 0.0 | 1.7 | 0.00 | 0.00 | 0.00 | 77 | 1023.8 |
| 20260502013428 | 44 | 10 | 0.9 | 1.7 | 0.00 | 0.00 | 0.00 | 77 | 1023.9 |
| 20260502012650 | 44 | 10 | 0.0 | 0.9 | 0.00 | 0.00 | 0.00 | 77 | 1023.9 |
| 20260502012150 | 44 | 10 | 0.0 | 0.9 | 0.00 | 0.00 | 0.00 | 77 | 1023.9 |
| 20260502011651 | 44 | 10 | 0.9 | 0.9 | 0.00 | 0.00 | 0.00 | 77 | 1023.9 |
| 20260502011437 | 44 | 10 | 0.0 | 0.9 | 0.00 | 0.00 | 0.00 | 77 | 1023.9 |
| 20260502010650 | 44 | 10 | 0.0 | 0.0 | 0.00 | 0.00 | 0.00 | 77 | 1023.9 |
| 20260502010151 | 45 | 10 | 0.0 | 0.0 | 0.00 | 0.00 | 0.00 | 77 | 1023.9 |
| 20260502005933 | 45 | 10 | 0.0 | 0.0 | 0.00 | 0.00 | 0.00 | 76 | 1023.9 |
| 20260502005151 | 45 | 10 | 0.0 | 0.0 | 0.00 | 0.00 | 0.00 | 76 | 1024.2 |
| 20260502004651 | 45 | 10 | 0.0 | 0.0 | 0.00 | 0.00 | 0.00 | 76 | 1024.0 |
| 20260502004150 | 45 | 10 | 0.0 | 0.0 | 0.00 | 0.00 | 0.00 | 76 | 1024.0 |
| 20260502003649 | 45 | 10 | 0.0 | 0.9 | 0.00 | 0.00 | 0.00 | 76 | 1024.0 |
| 20260502003148 | 45 | 10 | 0.9 | 0.9 | 0.00 | 0.00 | 0.00 | 76 | 1024.0 |
| 20260502002930 | 45 | 10 | 0.9 | 0.9 | 0.00 | 0.00 | 0.00 | 76 | 1024.0 |
| 20260502002149 | 46 | 10 | 0.0 | 0.0 | 0.00 | 0.00 | 0.00 | 76 | 1024.0 |
| 20260502001649 | 46 | 10 | 0.0 | 0.0 | 0.00 | 0.00 | 0.00 | 76 | 1024.2 |
| 20260502001148 | 46 | 10 | 0.0 | 0.0 | 0.00 | 0.00 | 0.00 | 76 | 1024.0 |
| 20260502000648 | 46 | 10 | 0.0 | 0.0 | 0.00 | 0.00 | 0.00 | 75 | 1024.2 |
| 20260502000149 | 46 | 10 | 0.0 | 0.9 | 0.00 | 0.00 | 0.00 | 76 | 1024.0 |
| 20260501235648 | 46 | 10 | 0.0 | 0.9 | 0.00 | 0.00 | 0.00 | 75 | 1024.2 |
| 20260501235149 | 46 | 10 | 0.9 | 0.9 | 0.00 | 0.00 | 0.00 | 75 | 1024.2 |
| 20260501234649 | 46 | 10 | 0.0 | 0.9 | 0.00 | 0.00 | 0.00 | 75 | 1024.2 |
| 20260501234422 | 47 | 10 | 0.9 | 1.7 | 0.00 | 0.00 | 0.00 | 75 | 1024.2 |
| 20260501233929 | 47 | 10 | 0.0 | 1.7 | 0.00 | 0.00 | 0.00 | 75 | 1024.3 |
| 20260501233148 | 47 | 10 | 0.9 | 0.9 | 0.00 | 0.00 | 0.00 | 75 | 1024.3 |
| 20260501232933 | 47 | 10 | 0.0 | 0.0 | 0.00 | 0.00 | 0.00 | 75 | 1024.3 |
| 20260501232150 | 47 | 10 | 0.0 | 0.9 | 0.00 | 0.00 | 0.00 | 75 | 1024.4 |
| 20260501231649 | 47 | 10 | 0.0 | 1.7 | 0.00 | 0.00 | 0.00 | 74 | 1024.4 |
| 20260501231422 | 47 | 10 | 0.9 | 1.7 | 0.00 | 0.00 | 0.00 | 74 | 1024.4 |
| 20260501230930 | 48 | 10 | 0.0 | 0.0 | 0.00 | 0.00 | 0.00 | 74 | 1024.5 |
| 20260501230148 | 48 | 10 | 0.0 | 0.0 | 0.00 | 0.00 | 0.00 | 73 | 1024.5 |
| 20260501225648 | 48 | 10 | 0.0 | 0.9 | 0.00 | 0.00 | 0.00 | 73 | 1024.4 |
| 20260501225148 | 48 | 10 | 0.0 | 0.9 | 0.00 | 0.00 | 0.00 | 74 | 1024.5 |
| 20260501224638 | 48 | 10 | 0.0 | 1.7 | 0.00 | 0.00 | 0.00 | 74 | 1024.5 |
| 20260501224139 | 49 | 10 | 1.7 | 2.6 | 0.00 | 0.00 | 0.00 | 74 | 1024.5 |
| 20260501223920 | 49 | 10 | 1.7 | 2.6 | 0.00 | 0.00 | 0.00 | 74 | 1024.5 |
| 20260501223417 | 49 | 10 | 0.9 | 0.9 | 0.00 | 0.00 | 0.00 | 74 | 1024.5 |
| 20260501222920 | 49 | 10 | 0.9 | 0.9 | 0.00 | 0.00 | 0.00 | 73 | 1024.4 |
| 20260501222133 | 49 | 10 | 0.0 | 0.0 | 0.00 | 0.00 | 0.00 | 73 | 1024.5 |
| 20260501221634 | 49 | 10 | 0.0 | 0.0 | 0.00 | 0.00 | 0.00 | 73 | 1024.5 |
| 20260501221131 | 49 | 10 | 0.0 | 0.0 | 0.00 | 0.00 | 0.00 | 73 | 1024.4 |
| 20260501220630 | 49 | 10 | 0.0 | 0.0 | 0.00 | 0.00 | 0.00 | 72 | 1024.4 |
| 20260501220108 | 50 | 10 | 0.0 | 0.0 | 0.00 | 0.00 | 0.00 | 72 | 1024.5 |
| 20260501215608 | 50 | 10 | 0.0 | 0.0 | 0.00 | 0.00 | 0.00 | 72 | 1024.5 |
| 20260501215105 | 50 | 10 | 0.0 | 0.0 | 0.00 | 0.00 | 0.00 | 72 | 1024.5 |
| 20260501214607 | 50 | 10 | 0.0 | 0.0 | 0.00 | 0.00 | 0.00 | 71 | 1024.5 |
| 20260501214105 | 51 | 10 | 0.0 | 0.0 | 0.00 | 0.00 | 0.00 | 70 | 1024.5 |
| 20260501213606 | 51 | 10 | 0.0 | 0.9 | 0.00 | 0.00 | 0.00 | 70 | 1024.5 |
| 20260501213353 | 51 | 10 | 0.0 | 0.9 | 0.00 | 0.00 | 0.00 | 70 | 1024.4 |
| 20260501212554 | 51 | 10 | 0.0 | 0.0 | 0.00 | 0.00 | 0.00 | 69 | 1024.5 |
| 20260501212049 | 51 | 10 | 0.0 | 0.9 | 0.00 | 0.00 | 0.00 | 69 | 1024.5 |
| 20260501211549 | 0 | 10 | 0.9 | 0.9 | 0.00 | 0.00 | 0.00 | 1024.5 | |
| 20260501211005 | 52 | 10 | 0.9 | 0.9 | 0.00 | 0.00 | 0.00 | 68 | 1024.5 |
| 20260501210503 | 52 | 10 | 0.9 | 0.9 | 0.00 | 0.00 | 0.00 | 68 | 1024.5 |
| 20260501210004 | 52 | 10 | 0.0 | 0.0 | 0.00 | 0.00 | 0.00 | 67 | 1024.4 |
| 20260501205503 | 53 | 10 | 0.0 | 0.9 | 0.00 | 0.00 | 0.00 | 66 | 1024.5 |
| 20260501205004 | 53 | 10 | 0.0 | 0.9 | 0.00 | 0.00 | 0.00 | 66 | 1024.4 |
| 20260501204749 | 53 | 10 | 0.0 | 0.0 | 0.00 | 0.00 | 0.00 | 66 | 1024.4 |
| 20260501204002 | 53 | 10 | 0.0 | 0.0 | 0.00 | 0.00 | 0.00 | 65 | 1024.3 |
| 20260501203504 | 54 | 10 | 0.0 | 0.0 | 0.00 | 0.00 | 0.00 | 65 | 1024.4 |
| 20260501203003 | 54 | 10 | 0.0 | 0.9 | 0.00 | 0.00 | 0.00 | 65 | 1024.6 |
| 20260501202745 | 54 | 10 | 0.0 | 1.7 | 0.00 | 0.00 | 0.00 | 64 | 1024.5 |
| 20260501202003 | 54 | 10 | 0.9 | 1.7 | 0.00 | 0.00 | 0.00 | 63 | 1024.6 |
| 20260501201505 | 55 | 10 | 0.9 | 1.7 | 0.00 | 0.00 | 0.00 | 63 | 1024.6 |
| 20260501201250 | 55 | 10 | 1.7 | 1.7 | 0.00 | 0.00 | 0.00 | 63 | 1024.5 |
| 20260501200505 | 55 | 10 | 0.9 | 1.7 | 0.00 | 0.00 | 0.00 | 62 | 1024.6 |
| 20260501200005 | 56 | 10 | 0.9 | 1.7 | 0.00 | 0.00 | 0.00 | 61 | 1024.6 |
| 20260501195505 | 56 | 10 | 0.0 | 0.9 | 0.00 | 0.00 | 0.00 | 61 | 1024.6 |
| 20260501195004 | 56 | 10 | 0.9 | 0.9 | 0.00 | 0.00 | 0.00 | 60 | 1024.6 |
| 20260501194503 | 57 | 10 | 0.0 | 0.9 | 0.00 | 0.00 | 0.00 | 60 | 1024.6 |
| 20260501194002 | 57 | 10 | 0.9 | 1.7 | 0.00 | 0.00 | 0.00 | 59 | 1024.6 |
| 20260501193502 | 58 | 10 | 1.7 | 1.7 | 0.00 | 0.00 | 0.00 | 59 | 1024.7 |
| 20260501193247 | 58 | 10 | 0.9 | 1.7 | 0.00 | 0.00 | 0.00 | 58 | 1024.6 |
| 20260501192502 | 58 | 10 | 0.9 | 1.7 | 0.00 | 0.00 | 0.00 | 57 | 1024.6 |
| 20260501192243 | 58 | 10 | 0.9 | 2.6 | 0.00 | 0.00 | 0.00 | 56 | 1024.7 |
| 20260501191501 | 59 | 10 | 1.7 | 2.6 | 0.00 | 0.00 | 0.00 | 55 | 1024.6 |
| 20260501191001 | 59 | 40 | 1.7 | 1.7 | 0.00 | 0.00 | 0.00 | 55 | 1024.6 |
| 20260501190502 | 60 | 40 | 0.0 | 0.0 | 0.00 | 0.00 | 0.00 | 52 | 1024.5 |
| 20260501190238 | 60 | 40 | 0.0 | 0.0 | 0.00 | 0.00 | 0.00 | 52 | 1024.5 |
| 20260501185502 | 61 | 40 | 0.0 | 0.0 | 0.00 | 0.00 | 0.00 | 51 | 1024.4 |
| 20260501185001 | 62 | 40 | 0.0 | 0.0 | 0.00 | 0.00 | 0.00 | 50 | 1024.5 |
| 20260501184501 | 62 | 40 | 0.0 | 0.0 | 0.00 | 0.00 | 0.00 | 49 | 1024.5 |
| 20260501183959 | 63 | 40 | 0.0 | 0.0 | 0.00 | 0.00 | 0.00 | 48 | 1024.4 |
| 20260501183459 | 64 | 40 | 0.0 | 0.9 | 0.00 | 0.00 | 0.00 | 47 | 1024.5 |
| 20260501183242 | 65 | 39 | 0.0 | 1.7 | 0.00 | 0.00 | 0.00 | 45 | 1024.4 |
| 20260501182500 | 66 | 40 | 0.0 | 1.7 | 0.00 | 0.00 | 0.00 | 41 | 1024.4 |
| 20260501182000 | 67 | 39 | 0.9 | 1.7 | 0.00 | 0.00 | 0.00 | 41 | 1024.3 |
| 20260501181459 | 67 | 39 | 0.9 | 1.7 | 0.00 | 0.00 | 0.00 | 41 | 1024.4 |
| 20260501181002 | 68 | 40 | 1.7 | 1.7 | 0.00 | 0.00 | 0.00 | 38 | 1024.3 |
| 20260501180745 | 69 | 40 | 0.9 | 2.6 | 0.00 | 0.00 | 0.00 | 38 | 1024.0 |
| 20260501180000 | 69 | 40 | 1.7 | 2.6 | 0.00 | 0.00 | 0.00 | 37 | 1024.0 |
| 20260501175500 | 69 | 40 | 0.9 | 3.5 | 0.00 | 0.00 | 0.00 | 36 | 1024.2 |
| 20260501175000 | 69 | 40 | 1.7 | 3.5 | 0.00 | 0.00 | 0.00 | 36 | 1024.0 |
| 20260501174500 | 70 | 40 | 1.7 | 4.3 | 0.00 | 0.00 | 0.00 | 36 | 1024.0 |
| 20260501173958 | 70 | 39 | 2.6 | 4.3 | 0.00 | 0.00 | 0.00 | 36 | 1024.0 |
| 20260501173459 | 70 | 39 | 2.6 | 4.3 | 0.00 | 0.00 | 0.00 | 35 | 1024.0 |
| 20260501172959 | 70 | 46 | 2.6 | 4.3 | 0.00 | 0.00 | 0.00 | 35 | 1024.0 |
| 20260501172751 | 71 | 33 | 2.6 | 4.3 | 0.00 | 0.00 | 0.00 | 35 | 1024.0 |
| 20260501171959 | 71 | 33 | 1.7 | 4.3 | 0.00 | 0.00 | 0.00 | 34 | 1024.0 |
| 20260501171459 | 71 | 33 | 2.6 | 4.3 | 0.00 | 0.00 | 0.00 | 35 | 1023.9 |
| 20260501170958 | 71 | 37 | 3.5 | 4.3 | 0.00 | 0.00 | 0.00 | 35 | 1024.0 |
| 20260501170458 | 71 | 40 | 1.7 | 5.2 | 0.00 | 0.00 | 0.00 | 35 | 1024.0 |
| 20260501170341 | 72 | 20 | 4.3 | 8.7 | 0.00 | 0.00 | 0.00 | 34 | 1023.9 |
| 20260501170336 | 71 | 12 | 6.1 | 8.7 | 0.00 | 0.00 | 0.00 | 34 | 1024.2 |
| 20260501170328 | 71 | 6 | 3.5 | 6.1 | 0.00 | 0.00 | 0.00 | 34 | 1024.0 |
| 20260501164458 | 72 | 10 | 2.6 | 4.3 | 0.00 | 0.00 | 0.00 | 34 | 1024.0 |
| 20260501163956 | 72 | 68 | 2.6 | 6.1 | 0.00 | 0.00 | 0.00 | 34 | 1024.0 |